Regional Weather Roundup
Issued by NWS

Home | Current Version | Previous Version | Graphics & Text | Print | Product List | Glossary On
Versions: 1 2 3 4 5 6 7 8 9 10 11 12 13 14 15 16 17 18 19 20 21 22 23 24 25 26 27 28 29 30 31 32 33 34 35 36 37 38 39 40 41 42 43 44 45 46 47 48 49 50
000
ASUS43 KLSX 191910
RWRMO

WEATHER SUMMARY FOR MISSOURI
NATIONAL WEATHER SERVICE SPRINGFIELD MO
100 PM CST SUN FEB 19 2017

NOTE: "FAIR" INDICATES FEW OR NO CLOUDS BELOW 12,000 FEET WITH NO
       SIGNIFICANT WEATHER AND/OR OBSTRUCTIONS TO VISIBILITY.
       CURRENT SKY AND/OR WEATHER CONDITIONS ARE NOT AVAILABLE FOR
       CHILLICOTHE AND FARMINGTON.

MOZ001>031-035>038-043-044-053-054-192000-
...NORTHERN AND WESTERN MISSOURI...

CITY           SKY/WX    TMP DP  RH WIND       PRES   REMARKS
KANSAS CTY INT PTSUNNY   70  53  54 S16       29.94F
KANSAS C DTWN  CLOUDY    70  52  52 S10       29.93F
LEE`S SUMMIT   SUNNY     69  53  56 S12       29.95F
ST JOSEPH      MOSUNNY   69  54  58 S13       29.92F
CHILLICOTHE      N/A     69  52  54 S7G16     29.96F
KIRKSVILLE     MOSUNNY   70  51  51 S12       29.99F

$$
MOZ066>068-077>081-088>096-101>105-192000-
...SOUTHWEST MISSOURI...

CITY           SKY/WX    TMP DP  RH WIND       PRES   REMARKS
SPRINGFIELD    SUNNY     71  54  54 SE14      29.98F
JOPLIN         SUNNY     73  57  57 S13       29.96F
BRANSON        MOSUNNY   72  57  60 SE9       30.01F

$$
MOZ032>034-039>042-045>050-055>058-069>072-192000-
...CENTRAL MISSOURI...

CITY           SKY/WX    TMP DP  RH WIND       PRES   REMARKS
COLUMBIA       SUNNY     72  49  44 SE13      29.99F
JEFFERSON CITY SUNNY     70  51  51 E7        29.99F
ROLLA          SUNNY     73  48  41 S14G22    30.00F
SEDALIA        SUNNY     76  48  37 S15G24    29.98F
WHITEMAN AFB   SUNNY     73  49  42 S14G22    29.95F
WARRENSBURG    SUNNY     70  46  43 S13G20    29.96F
OSAGE BEACH    SUNNY     74  48  39 S10       30.00F

$$
MOZ051-052-059>065-192000-
...EAST CENTRAL MISSOURI...

CITY           SKY/WX    TMP DP  RH WIND       PRES   REMARKS
ST LOUIS INTL  MOSUNNY   70  51  51 E5        30.04F
SPIRIT OF STL  SUNNY     71  48  43 VRB7      30.02F
ST CHARLES     SUNNY     69  51  52 VRB6      30.03F

$$
MOZ072>076-082>087-097>100-106>115-192000-
...SOUTH CENTRAL AND SOUTHEAST MISSOURI...

CITY           SKY/WX    TMP DP  RH WIND       PRES   REMARKS
CAPE GIRARDEAU CLOUDY    57  53  86 SE6       30.09F
FARMINGTON     SUNNY     71  52  50 S10       30.05F
POPLAR BLUFF   MOSUNNY   59  57  93 S3        30.08F
WEST PLAINS    PTSUNNY   62  56  80 S9        30.07F

$$



USA.gov is the U.S. government's official web portal to all federal, state and local government web resources and services.